User: anonymous   Login
Location: Unspecified
(0.0000°N, 0.0000°E)
Time: 21:46:19
(UTC+02:00)
Language:

YAOGAN 1 - Orbit

View from above orbital plane
View from above orbital plane
View from above satellite
View from above satellite

Ground track
Ground track

The orbit data is extracted from the following two-line orbital elements,

1 29092U 06015A   15209.21408956  .00000178  00000-0  28912-4 0  9998
2 29092 097.9975 209.0159 0001423 089.8475 325.3592 14.82437087500139
Epoch (UTC): 28 July 2015 05:08:17
Eccentricity: 0.0001423
inclination: 97.9975°
perigee height: 620 km
apogee height: 622 km
right ascension of ascending node: 209.0159°
argument of perigee: 89.8475°
revolutions per day: 14.82437087
mean anomaly at epoch: 325.3592°
orbit number at epoch: 50013

The dashed part of the orbit path shows where the satellite is in the earth's shadow,  

DLR